User: anonymous   Login
Location: Brno
(49.2000°N, 16.6330°E)
Time: 13:15:56
(UTC+02:00)
Language:

Meteor 1-4 Rocket - Orbit

View from above orbital plane
View from above orbital plane
View from above satellite
View from above satellite

Ground track
Ground track

The orbit data is extracted from the following two-line orbital elements,

1  4394U 70037B   17117.92702656 +.00001868 +00000-0 +65875-4 0  9999
2  4394 081.2425 073.8428 0039776 296.5599 063.1561 15.27973345557569
Epoch (UTC): 27 April 2017 22:14:55
Eccentricity: 0.0039776
inclination: 81.2425°
perigee height: 454 km
apogee height: 509 km
right ascension of ascending node: 73.8428°
argument of perigee: 296.5599°
revolutions per day: 15.27973345
mean anomaly at epoch: 63.1561°
orbit number at epoch: 55756

The dashed part of the orbit path shows where the satellite is in the earth's shadow,  

DLR